Location: Bruderhein
(53.8035°N, 112.9265°W)
Time: 13:42:38
(UTC+00:00)

deb Delta 139 - Pass Details

Date: 11 December 2023
Orbit: 731 x 794 km, 98.6° (Epoch: 01 March)

Event Time Altitude Azimuth Distance (km) Brightness Sun altitude
Rises 01:32:59 0° 170° (S) 3,242 ? -19.6°
Reaches altitude 10° 01:35:19 10° 172° (S) 2,310 ? -19.9°
Maximum altitude 01:40:23 69° 256° (WSW) 817 ? -20.6°
Drops below altitude 10° 01:45:25 10° 340° (NNW) 2,285 ? -21.3°
Sets 01:47:43 0° 343° (NNW) 3,205 ? -21.7°
